CW6490 Weather Reports


Display with metric or nautical units.
time (UTC)temp
F
wind
direction
speed
MPH
gust
MPH
rain 1hr
in
rain 24hr
in
rain mn
in
humidity
%
barometer
mb
20260505214816 78 235 8.0 17.0 0.00 0.00 0.00 27 1010.3
20260505213813 77 227 4.0 17.0 0.00 0.00 0.00 28 1010.4
20260505212846 78 205 5.0 12.0 0.00 0.00 0.00 29 1010.4
20260505211817 77 244 4.0 12.0 0.00 0.00 0.00 30 1010.6
20260505210830 77 243 7.0 16.0 0.00 0.00 0.00 30 1010.8
20260505205823 77 239 9.0 17.0 0.00 0.00 0.00 30 1010.6
20260505204815 78 191 6.0 18.0 0.00 0.00 0.00 31 1010.8
20260505203831 77 274 6.0 11.0 0.00 0.00 0.00 33 1010.8
20260505202822 77 249 9.0 16.0 0.00 0.00 0.00 33 1011.0
20260505201813 76 234 7.0 13.0 0.00 0.00 0.00 35 1011.0
20260505200822 75 224 3.0 12.0 0.00 0.00 0.00 37 1011.2
20260505195835 75 170 7.0 12.0 0.00 0.00 0.00 37 1011.2
20260505194845 76 216 7.0 15.0 0.00 0.00 0.00 38 1011.4
20260505193821 76 235 5.0 15.0 0.00 0.00 0.00 37 1011.3
20260505192816 76 233 6.0 15.0 0.00 0.00 0.00 38 1011.2
20260505191812 76 226 4.0 12.0 0.00 0.00 0.00 38 1011.4
20260505190829 75 178 3.0 8.0 0.00 0.00 0.00 39 1011.5
20260505185826 75 216 6.0 14.0 0.00 0.00 0.00 40 1011.7
20260505184825 74 224 6.0 11.0 0.00 0.00 0.00 41 1011.8
20260505183822 74 177 4.0 10.0 0.00 0.00 0.00 40 1011.8
20260505182819 74 173 5.0 12.0 0.00 0.00 0.00 42 1012.0
20260505181818 74 234 5.0 10.0 0.00 0.00 0.00 40 1012.1
20260505180818 73 213 4.0 10.0 0.00 0.00 0.00 44 1012.1
20260505175813 72 181 5.0 10.0 0.00 0.00 0.00 46 1012.0
20260505174829 71 208 1.0 11.0 0.00 0.00 0.00 47 1012.1
20260505173825 71 236 5.0 11.0 0.00 0.00 0.00 49 1012.1
20260505172820 71 223 4.0 9.0 0.00 0.00 0.00 48 1012.1
20260505171820 71 227 4.0 10.0 0.00 0.00 0.00 49 1012.1
20260505170817 72 242 3.0 10.0 0.00 0.00 0.00 49 1012.1
20260505165852 71 237 3.0 7.0 0.00 0.00 0.00 50 1012.1
20260505164826 71 214 4.0 8.0 0.00 0.00 0.00 52 1012.2
20260505163823 70 239 3.0 8.0 0.00 0.00 0.00 53 1012.2
20260505162823 70 215 4.0 10.0 0.00 0.00 0.00 53 1012.2
20260505161818 70 202 3.0 9.0 0.00 0.00 0.00 54 1012.2
20260505160813 68 163 3.0 8.0 0.00 0.00 0.00 56 1012.3
20260505152824 68 175 0.0 3.0 0.00 0.00 0.00 59 1011.9
20260505151820 68 220 1.0 7.0 0.00 0.00 0.00 60 1012.1
20260505150816 67 200 2.0 7.0 0.00 0.00 0.00 61 1012.1
20260505124829 65 161 0.0 1.0 0.00 0.00 0.00 70 1011.4
20260505123824 65 93 0.0 2.0 0.00 0.00 0.00 70 1011.3
20260505122841 65 82 0.0 4.0 0.00 0.00 0.00 70 1011.1
20260505121822 64 136 0.0 3.0 0.00 0.00 0.00 71 1011.1
20260505120816 64 69 0.0 2.0 0.00 0.00 0.00 71 1011.1
20260505115832 64 75 1.0 3.0 0.00 0.00 0.00 71 1011.0
20260505114829 65 79 1.0 3.0 0.00 0.00 0.00 70 1011.0
20260505113824 65 69 2.0 6.0 0.00 0.00 0.00 69 1011.0
20260505112825 65 94 2.0 4.0 0.00 0.00 0.00 66 1010.9
20260505111820 66 70 2.0 7.0 0.00 0.00 0.00 64 1010.9
20260505110815 66 54 1.0 5.0 0.00 0.00 0.00 63 1010.9
20260505101839 66 162 4.0 11.0 0.00 0.00 0.00 61 1011.9
20260505100814 66 157 3.0 6.0 0.00 0.00 0.00 60 1011.8
20260505095830 66 150 2.0 8.0 0.00 0.00 0.00 60 1011.9
20260505094830 66 160 4.0 9.0 0.00 0.00 0.00 60 1011.9
20260505093826 66 167 3.0 8.0 0.00 0.00 0.00 60 1012.0
20260505092823 66 99 3.0 9.0 0.00 0.00 0.00 63 1012.1
20260505091839 66 143 4.0 8.0 0.00 0.00 0.00 64 1012.2
20260505090813 66 132 4.0 8.0 0.00 0.00 0.00 64 1012.1
20260505085850 67 148 3.0 10.0 0.00 0.00 0.00 62 1012.3
20260505084828 67 137 4.0 12.0 0.00 0.00 0.00 60 1012.3
20260505083820 67 79 6.0 10.0 0.00 0.00 0.00 59 1012.4
20260505082837 68 170 5.0 14.0 0.00 0.00 0.00 57 1012.4
20260505081832 68 209 3.0 11.0 0.00 0.00 0.00 56 1012.7
20260505080829 68 143 5.0 12.0 0.00 0.00 0.00 53 1012.6
20260505075825 69 143 6.0 14.0 0.00 0.00 0.00 49 1012.8
20260505074826 70 160 6.0 12.0 0.00 0.00 0.00 46 1012.8
20260505073823 70 211 2.0 10.0 0.00 0.00 0.00 46 1012.6
20260505072820 70 174 4.0 9.0 0.00 0.00 0.00 46 1012.5
20260505071817 70 168 3.0 7.0 0.00 0.00 0.00 46 1012.6
20260505070831 70 159 4.0 10.0 0.00 0.00 0.00 45 1012.6
20260505065832 70 166 6.0 12.0 0.00 0.00 0.00 44 1012.6
20260505064827 71 168 5.0 12.0 0.00 0.00 0.00 42 1012.6
20260505063823 71 156 5.0 11.0 0.00 0.00 0.00 39 1012.4
20260505062820 71 156 6.0 11.0 0.00 0.00 0.00 38 1012.1
20260505061816 72 75 3.0 9.0 0.00 0.00 0.00 35 1011.9
20260505060817 72 193 5.0 13.0 0.00 0.00 0.00 34 1012.0
20260505055854 72 165 5.0 15.0 0.00 0.00 0.00 31 1011.9
20260505054827 73 175 3.0 9.0 0.00 0.00 0.00 32 1011.8
20260505053822 73 149 4.0 10.0 0.00 0.00 0.00 32 1012.2
20260505052818 73 160 4.0 9.0 0.00 0.00 0.00 33 1012.4
20260505051818 73 98 1.0 8.0 0.00 0.00 0.00 33 1012.5
20260505050835 73 136 2.0 8.0 0.00 0.00 0.00 32 1012.6
20260505040813 75 215 1.0 8.0 0.00 0.00 0.00 42 1012.2
20260505035826 75 242 1.0 5.0 0.00 0.00 0.00 42 1012.2
20260505034818 75 204 1.0 2.0 0.00 0.00 0.00 43 1012.0
20260505033815 75 219 1.0 2.0 0.00 0.00 0.00 43 1011.8
20260505032829 75 241 1.0 4.0 0.00 0.00 0.00 42 1011.7
20260505031824 75 235 1.0 3.0 0.00 0.00 0.00 42 1011.3
20260505030817 75 234 1.0 5.0 0.00 0.00 0.00 42 1011.2
20260505025830 75 237 2.0 7.0 0.00 0.00 0.00 41 1011.2
20260505024827 76 230 3.0 7.0 0.00 0.00 0.00 40 1011.3
20260505023820 76 226 1.0 3.0 0.00 0.00 0.00 39 1011.2
20260505022833 76 231 1.0 3.0 0.00 0.00 0.00 39 1011.2
20260505021826 77 223 2.0 3.0 0.00 0.00 0.00 38 1011.1
20260505020840 77 204 0.0 6.0 0.00 0.00 0.00 36 1011.2
20260505015813 77 182 1.0 5.0 0.00 0.00 0.00 36 1010.9
20260505014831 77 177 2.0 4.0 0.00 0.00 0.00 35 1010.9
20260505013825 77 214 1.0 2.0 0.00 0.00 0.00 38 1010.7
20260505012819 77 276 0.0 2.0 0.00 0.00 0.00 39 1010.6
20260505011812 77 218 0.0 6.0 0.00 0.00 0.00 38 1010.8
20260505010813 77 225 2.0 7.0 0.00 0.00 0.00 38 1010.8
20260505005848 77 243 2.0 8.0 0.00 0.00 0.00 38 1010.8
20260505004821 78 222 1.0 3.0 0.00 0.00 0.00 38 1010.9
20260505003816 78 247 0.0 2.0 0.00 0.00 0.00 38 1010.8
20260505002831 78 225 1.0 3.0 0.00 0.00 0.00 38 1010.9
20260505001824 77 218 1.0 6.0 0.00 0.00 0.00 38 1011.0
20260505000821 77 208 1.0 3.0 0.00 0.00 0.00 39 1011.1
20260504235813 77 224 1.0 5.0 0.00 0.00 0.00 39 1011.3
20260504234827 78 248 3.0 7.0 0.00 0.00 0.00 39 1011.4
20260504233820 78 208 0.0 3.0 0.00 0.00 0.00 39 1011.4
20260504232819 77 314 2.0 5.0 0.00 0.00 0.00 40 1011.3
20260504231812 77 354 0.0 7.0 0.00 0.00 0.00 40 1011.2
20260504230827 77 197 1.0 4.0 0.00 0.00 0.00 40 1011.2
20260504225821 78 231 2.0 5.0 0.00 0.00 0.00 39 1011.3
20260504224812 78 328 1.0 5.0 0.00 0.00 0.00 40 1011.4
20260504223831 78 12 2.0 6.0 0.00 0.00 0.00 39 1011.4
20260504222826 78 287 4.0 12.0 0.00 0.00 0.00 39 1011.7
20260504221820 78 280 6.0 12.0 0.00 0.00 0.00 39 1011.7
20260504220831 78 243 3.0 8.0 0.00 0.00 0.00 40 1011.8
20260504215826 78 318 2.0 8.0 0.00 0.00 0.00 39 1011.8